Time,TemperatureF,DewpointF,PressureIn,WindDirection,WindDirectionDegrees,WindSpeedMPH,WindSpeedGustMPH,Humidity,HourlyPrecipIn,Conditions,Clouds,dailyrainin,SoftwareType,DateUTC
2013-04-19 00:03:00,-999.0,-99.9,30.11,SSE,154,11.0,14.0,-999,-99.99,,,-99.99,,2013-04-19 04:03:00,
2013-04-19 00:13:00,69.0,-99.9,30.11,SSE,157,11.0,14.0,-999,-99.99,,,-99.99,,2013-04-19 04:13:00,
2013-04-19 00:23:00,68.0,-99.9,30.10,North,-999,-999.0,-999.0,-999,-99.99,,,-99.99,,2013-04-19 04:23:00,
2013-04-19 00:33:00,-999.0,-99.9,30.11,SSE,161,10.0,14.0,-999,-99.99,,,-99.99,,2013-04-19 04:33:00,
2013-04-19 00:43:00,68.0,-99.9,30.11,North,-999,-999.0,-999.0,-999,-99.99,,,-99.99,,2013-04-19 04:43:00,
2013-04-19 00:52:00,68.0,-99.9,30.11,North,-999,-999.0,-999.0,-999,-99.99,,,-99.99,,2013-04-19 04:52:00,
2013-04-19 01:03:00,68.0,-99.9,30.10,North,-999,-999.0,-999.0,-999,-99.99,,,-99.99,,2013-04-19 05:03:00,
2013-04-19 01:12:00,67.0,-99.9,30.10,North,-999,-999.0,-999.0,-999,-99.99,,,-99.99,,2013-04-19 05:12:00,
2013-04-19 01:22:00,-999.0,-99.9,30.09,SSE,156,9.0,13.0,-999,-99.99,,,-99.99,,2013-04-19 05:22:00,
2013-04-19 01:32:00,-999.0,-99.9,30.09,SSE,165,9.0,11.0,-999,-99.99,,,-99.99,,2013-04-19 05:32:00,
2013-04-19 01:42:00,68.0,-99.9,30.08,North,-999,-999.0,-999.0,-999,-99.99,,,-99.99,,2013-04-19 05:42:00,
2013-04-19 01:52:00,-999.0,-99.9,30.08,SSE,155,9.0,11.0,-999,-99.99,,,-99.99,,2013-04-19 05:52:00,
2013-04-19 02:02:00,-999.0,-99.9,30.07,SSE,152,8.0,11.0,-999,-99.99,,,-99.99,,2013-04-19 06:02:00,
2013-04-19 02:12:00,68.0,-99.9,30.06,SSE,158,9.0,11.0,-999,-99.99,,,-99.99,,2013-04-19 06:12:00,
2013-04-19 02:22:00,-999.0,-99.9,30.06,SSE,163,9.0,11.0,-999,-99.99,,,-99.99,,2013-04-19 06:22:00,
2013-04-19 02:32:00,-999.0,-99.9,30.06,South,169,10.0,13.0,-999,-99.99,,,-99.99,,2013-04-19 06:32:00,
2013-04-19 02:42:00,67.0,-99.9,30.06,South,175,11.0,13.0,-999,-99.99,,,-99.99,,2013-04-19 06:42:00,
2013-04-19 02:53:00,-999.0,-99.9,30.05,South,174,11.0,14.0,-999,-99.99,,,-99.99,,2013-04-19 06:53:00,
2013-04-19 03:02:00,-999.0,-99.9,30.05,South,174,12.0,14.0,-999,-99.99,,,-99.99,,2013-04-19 07:02:00,
2013-04-19 03:12:00,-999.0,-99.9,30.05,South,174,12.0,15.0,-999,-99.99,,,-99.99,,2013-04-19 07:12:00,
2013-04-19 03:22:00,68.0,-99.9,30.04,North,-999,-999.0,-999.0,-999,-99.99,,,-99.99,,2013-04-19 07:22:00,
2013-04-19 03:32:00,-999.0,-99.9,30.04,South,181,14.0,20.0,-999,-99.99,,,-99.99,,2013-04-19 07:32:00,
2013-04-19 03:42:00,67.0,-99.9,30.04,South,173,13.0,15.0,-999,-99.99,,,-99.99,,2013-04-19 07:42:00,
2013-04-19 03:52:00,-999.0,-99.9,30.03,South,176,13.0,17.0,-999,-99.99,,,-99.99,,2013-04-19 07:52:00,
2013-04-19 04:02:00,-999.0,-99.9,30.04,South,174,12.0,16.0,-999,-99.99,,,-99.99,,2013-04-19 08:02:00,
2013-04-19 04:12:00,67.0,-99.9,30.03,North,-999,-999.0,-999.0,-999,-99.99,,,-99.99,,2013-04-19 08:12:00,
2013-04-19 04:22:00,-999.0,-99.9,30.02,SSE,164,12.0,16.0,-999,-99.99,,,-99.99,,2013-04-19 08:22:00,
2013-04-19 04:33:00,67.0,-99.9,30.02,North,-999,-999.0,-999.0,-999,-99.99,,,-99.99,,2013-04-19 08:33:00,
2013-04-19 04:42:00,-999.0,-99.9,30.02,SSE,167,12.0,15.0,-999,-99.99,,,-99.99,,2013-04-19 08:42:00,
2013-04-19 04:52:00,67.0,-99.9,30.01,North,-999,-999.0,-999.0,-999,-99.99,,,-99.99,,2013-04-19 08:52:00,
2013-04-19 05:01:00,67.0,-99.9,30.01,North,-999,-999.0,-999.0,-999,-99.99,,,-99.99,,2013-04-19 09:01:00,
2013-04-19 05:12:00,67.0,-99.9,30.01,SSE,161,11.0,14.0,-999,-99.99,,,-99.99,,2013-04-19 09:12:00,
2013-04-19 05:22:00,67.0,-99.9,30.01,North,-999,-999.0,-999.0,-999,-99.99,,,-99.99,,2013-04-19 09:22:00,
2013-04-19 05:33:00,68.0,-99.9,30.01,North,-999,-999.0,-999.0,-999,-99.99,,,-99.99,,2013-04-19 09:33:00,
2013-04-19 05:43:00,-999.0,-99.9,30.01,SSE,167,11.0,15.0,-999,-99.99,,,-99.99,,2013-04-19 09:43:00,
2013-04-19 05:52:00,67.0,-99.9,30.01,North,-999,-999.0,-999.0,-999,-99.99,,,-99.99,,2013-04-19 09:52:00,
2013-04-19 06:02:00,-999.0,-99.9,30.02,SSW,203,17.0,21.0,-999,-99.99,,,-99.99,,2013-04-19 10:02:00,
2013-04-19 06:13:00,66.0,-99.9,30.02,North,-999,-999.0,-999.0,-999,-99.99,,,-99.99,,2013-04-19 10:13:00,
2013-04-19 06:23:00,-999.0,-99.9,30.02,SSW,205,15.0,19.0,-999,-99.99,,,-99.99,,2013-04-19 10:23:00,
2013-04-19 06:33:00,-999.0,-99.9,30.02,SSW,199,16.0,19.0,-999,-99.99,,,-99.99,,2013-04-19 10:33:00,
2013-04-19 06:42:00,-999.0,-99.9,30.02,SSW,205,14.0,20.0,-999,-99.99,,,-99.99,,2013-04-19 10:42:00,
2013-04-19 06:52:00,-999.0,-99.9,30.02,SSW,208,14.0,16.0,-999,-99.99,,,-99.99,,2013-04-19 10:52:00,
2013-04-19 07:03:00,-999.0,-99.9,30.01,SSW,199,15.0,19.0,-999,-99.99,,,-99.99,,2013-04-19 11:03:00,
2013-04-19 07:11:00,68.0,-99.9,30.01,North,-999,-999.0,-999.0,-999,-99.99,,,-99.99,,2013-04-19 11:11:00,
2013-04-19 07:22:00,-999.0,-99.9,30.02,SSW,209,19.0,24.0,-999,-99.99,,,-99.99,,2013-04-19 11:22:00,
2013-04-19 07:32:00,-999.0,-99.9,30.03,SW,219,9.0,16.0,-999,-99.99,,,-99.99,,2013-04-19 11:32:00,
2013-04-19 07:43:00,67.0,-99.9,30.04,SW,222,10.0,18.0,-999,-99.99,,,-99.99,,2013-04-19 11:43:00,
2013-04-19 07:53:00,67.0,-99.9,30.04,North,-999,-999.0,-999.0,-999,-99.99,,,-99.99,,2013-04-19 11:53:00,
2013-04-19 08:03:00,66.0,-99.9,30.04,North,-999,-999.0,-999.0,-999,-99.99,,,-99.99,,2013-04-19 12:03:00,
2013-04-19 08:12:00,-999.0,-99.9,30.04,SW,233,9.0,17.0,-999,-99.99,,,-99.99,,2013-04-19 12:12:00,
2013-04-19 08:22:00,-999.0,-99.9,30.03,SW,230,7.0,15.0,-999,-99.99,,,-99.99,,2013-04-19 12:22:00,
2013-04-19 08:32:00,67.0,-99.9,30.03,North,-999,-999.0,-999.0,-999,-99.99,,,-99.99,,2013-04-19 12:32:00,
2013-04-19 08:42:00,67.0,-99.9,30.03,SW,219,9.0,14.0,-999,-99.99,,,-99.99,,2013-04-19 12:42:00,
2013-04-19 08:53:00,67.0,-99.9,30.03,North,-999,-999.0,-999.0,-999,-99.99,,,-99.99,,2013-04-19 12:53:00,
2013-04-19 09:02:00,67.0,-99.9,30.03,North,-999,-999.0,-999.0,-999,-99.99,,,-99.99,,2013-04-19 13:02:00,
2013-04-19 09:11:00,-999.0,-99.9,30.03,SSW,193,11.0,14.0,-999,-99.99,,,-99.99,,2013-04-19 13:11:00,
2013-04-19 09:22:00,67.0,-99.9,30.03,North,-999,-999.0,-999.0,-999,-99.99,,,-99.99,,2013-04-19 13:22:00,
2013-04-19 09:32:00,-999.0,-99.9,30.03,South,185,15.0,17.0,-999,-99.99,,,-99.99,,2013-04-19 13:32:00,
2013-04-19 09:42:00,68.0,-99.9,30.03,North,-999,-999.0,-999.0,-999,-99.99,,,-99.99,,2013-04-19 13:42:00,
2013-04-19 09:52:00,69.0,-99.9,30.02,North,-999,-999.0,-999.0,-999,-99.99,,,-99.99,,2013-04-19 13:52:00,
2013-04-19 10:02:00,69.0,-99.9,30.03,North,-999,-999.0,-999.0,-999,-99.99,,,-99.99,,2013-04-19 14:02:00,
2013-04-19 10:12:00,69.0,-99.9,30.03,South,187,13.0,17.0,-999,-99.99,,,-99.99,,2013-04-19 14:12:00,
2013-04-19 10:22:00,69.0,-99.9,30.03,North,-999,-999.0,-999.0,-999,-99.99,,,-99.99,,2013-04-19 14:22:00,
2013-04-19 10:32:00,-999.0,-99.9,30.03,South,185,15.0,18.0,-999,-99.99,,,-99.99,,2013-04-19 14:32:00,
2013-04-19 10:43:00,-999.0,-99.9,30.03,South,181,17.0,19.0,-999,-99.99,,,-99.99,,2013-04-19 14:43:00,
2013-04-19 10:52:00,-999.0,-99.9,30.03,South,186,17.0,22.0,-999,-99.99,,,-99.99,,2013-04-19 14:52:00,
2013-04-19 11:02:00,69.0,-99.9,30.03,North,-999,-999.0,-999.0,-999,-99.99,,,-99.99,,2013-04-19 15:02:00,
2013-04-19 11:12:00,69.0,-99.9,30.03,South,191,17.0,21.0,-999,-99.99,,,-99.99,,2013-04-19 15:12:00,
2013-04-19 11:22:00,-999.0,-99.9,30.03,South,190,18.0,21.0,-999,-99.99,,,-99.99,,2013-04-19 15:22:00,
2013-04-19 11:33:00,-999.0,-99.9,30.03,South,188,17.0,20.0,-999,-99.99,,,-99.99,,2013-04-19 15:33:00,
2013-04-19 11:43:00,-999.0,-99.9,30.03,South,188,18.0,19.0,-999,-99.99,,,-99.99,,2013-04-19 15:43:00,
2013-04-19 11:53:00,70.0,-99.9,30.03,North,-999,-999.0,-999.0,-999,-99.99,,,-99.99,,2013-04-19 15:53:00,
2013-04-19 12:03:00,-999.0,-99.9,30.02,South,191,17.0,20.0,-999,-99.99,,,-99.99,,2013-04-19 16:03:00,
2013-04-19 12:13:00,70.0,-99.9,30.02,North,-999,-999.0,-999.0,-999,-99.99,,,-99.99,,2013-04-19 16:13:00,
2013-04-19 12:23:00,-999.0,-99.9,30.02,South,191,18.0,22.0,-999,-99.99,,,-99.99,,2013-04-19 16:23:00,
2013-04-19 12:33:00,70.0,-99.9,30.02,North,-999,-999.0,-999.0,-999,-99.99,,,-99.99,,2013-04-19 16:33:00,
2013-04-19 12:43:00,70.0,-99.9,30.02,North,-999,-999.0,-999.0,-999,-99.99,,,-99.99,,2013-04-19 16:43:00,
2013-04-19 12:53:00,-999.0,-99.9,30.01,South,190,16.0,21.0,-999,-99.99,,,-99.99,,2013-04-19 16:53:00,
2013-04-19 13:02:00,70.0,-99.9,30.01,North,-999,-999.0,-999.0,-999,-99.99,,,-99.99,,2013-04-19 17:02:00,
2013-04-19 13:12:00,69.0,-99.9,30.01,North,-999,-999.0,-999.0,-999,-99.99,,,-99.99,,2013-04-19 17:12:00,
2013-04-19 13:22:00,-999.0,-99.9,30.01,South,188,16.0,18.0,-999,-99.99,,,-99.99,,2013-04-19 17:22:00,
2013-04-19 13:33:00,70.0,-99.9,30.00,North,-999,-999.0,-999.0,-999,-99.99,,,-99.99,,2013-04-19 17:33:00,
2013-04-19 13:43:00,70.0,-99.9,29.99,South,191,17.0,21.0,-999,-99.99,,,-99.99,,2013-04-19 17:43:00,
2013-04-19 13:52:00,-999.0,-99.9,29.99,South,189,17.0,21.0,-999,-99.99,,,-99.99,,2013-04-19 17:52:00,
2013-04-19 14:02:00,-999.0,-99.9,29.99,South,191,18.0,20.0,-999,-99.99,,,-99.99,,2013-04-19 18:02:00,
2013-04-19 14:13:00,-999.0,-99.9,29.99,South,191,19.0,22.0,-999,-99.99,,,-99.99,,2013-04-19 18:13:00,
2013-04-19 14:23:00,-999.0,-99.9,29.98,South,189,19.0,22.0,-999,-99.99,,,-99.99,,2013-04-19 18:23:00,
2013-04-19 14:33:00,70.0,-99.9,29.98,North,-999,-999.0,-999.0,-999,-99.99,,,-99.99,,2013-04-19 18:33:00,
2013-04-19 14:43:00,70.0,-99.9,29.98,North,-999,-999.0,-999.0,-999,-99.99,,,-99.99,,2013-04-19 18:43:00,
2013-04-19 14:52:00,-999.0,-99.9,29.98,South,188,18.0,21.0,-999,-99.99,,,-99.99,,2013-04-19 18:52:00,
2013-04-19 15:02:00,70.0,-99.9,29.97,North,-999,-999.0,-999.0,-999,-99.99,,,-99.99,,2013-04-19 19:02:00,
2013-04-19 15:11:00,69.0,-99.9,29.97,North,-999,-999.0,-999.0,-999,-99.99,,,-99.99,,2013-04-19 19:11:00,
2013-04-19 15:22:00,69.0,-99.9,29.97,North,-999,-999.0,-999.0,-999,-99.99,,,-99.99,,2013-04-19 19:22:00,
2013-04-19 15:32:00,70.0,-99.9,29.96,North,-999,-999.0,-999.0,-999,-99.99,,,-99.99,,2013-04-19 19:32:00,
2013-04-19 15:42:00,-999.0,-99.9,29.96,South,184,17.0,21.0,-999,-99.99,,,-99.99,,2013-04-19 19:42:00,
2013-04-19 15:52:00,-999.0,-99.9,29.96,South,186,18.0,22.0,-999,-99.99,,,-99.99,,2013-04-19 19:52:00,
2013-04-19 16:02:00,-999.0,-99.9,29.95,South,188,19.0,20.0,-999,-99.99,,,-99.99,,2013-04-19 20:02:00,
2013-04-19 16:11:00,70.0,-99.9,29.94,South,187,19.0,22.0,-999,-99.99,,,-99.99,,2013-04-19 20:11:00,
2013-04-19 16:22:00,-999.0,-99.9,29.94,South,187,19.0,22.0,-999,-99.99,,,-99.99,,2013-04-19 20:22:00,
2013-04-19 16:32:00,69.0,-99.9,29.94,North,-999,-999.0,-999.0,-999,-99.99,,,-99.99,,2013-04-19 20:32:00,
2013-04-19 16:42:00,-999.0,-99.9,29.93,South,188,19.0,21.0,-999,-99.99,,,-99.99,,2013-04-19 20:42:00,
2013-04-19 16:52:00,69.0,-99.9,29.93,North,-999,-999.0,-999.0,-999,-99.99,,,-99.99,,2013-04-19 20:52:00,
2013-04-19 17:01:00,70.0,-99.9,29.93,North,-999,-999.0,-999.0,-999,-99.99,,,-99.99,,2013-04-19 21:01:00,
2013-04-19 17:12:00,69.0,-99.9,29.93,South,188,21.0,26.0,-999,-99.99,,,-99.99,,2013-04-19 21:12:00,
2013-04-19 17:22:00,69.0,-99.9,29.92,North,-999,-999.0,-999.0,-999,-99.99,,,-99.99,,2013-04-19 21:22:00,
2013-04-19 17:32:00,69.0,-99.9,29.92,North,-999,-999.0,-999.0,-999,-99.99,,,-99.99,,2013-04-19 21:32:00,
2013-04-19 17:43:00,-999.0,-99.9,29.92,South,179,21.0,26.0,-999,-99.99,,,-99.99,,2013-04-19 21:43:00,
2013-04-19 17:53:00,-999.0,-99.9,29.92,South,179,19.0,24.0,-999,-99.99,,,-99.99,,2013-04-19 21:53:00,
2013-04-19 18:02:00,68.0,-99.9,29.93,North,-999,-999.0,-999.0,-999,-99.99,,,-99.99,,2013-04-19 22:02:00,
2013-04-19 18:12:00,-999.0,-99.9,29.93,South,184,20.0,21.0,-999,-99.99,,,-99.99,,2013-04-19 22:12:00,
2013-04-19 18:23:00,-999.0,-99.9,29.93,South,190,20.0,25.0,-999,-99.99,,,-99.99,,2013-04-19 22:23:00,
2013-04-19 18:33:00,-999.0,-99.9,29.93,South,186,18.0,22.0,-999,-99.99,,,-99.99,,2013-04-19 22:33:00,
2013-04-19 18:42:00,69.0,-99.9,29.92,South,189,19.0,23.0,-999,-99.99,,,-99.99,,2013-04-19 22:42:00,
2013-04-19 18:52:00,-999.0,-99.9,29.92,SSW,192,18.0,23.0,-999,-99.99,,,-99.99,,2013-04-19 22:52:00,
2013-04-19 19:03:00,68.0,-99.9,29.93,North,-999,-999.0,-999.0,-999,-99.99,,,-99.99,,2013-04-19 23:03:00,
2013-04-19 19:11:00,-999.0,-99.9,29.92,South,184,15.0,18.0,-999,-99.99,,,-99.99,,2013-04-19 23:11:00,
2013-04-19 19:22:00,68.0,-99.9,29.92,North,-999,-999.0,-999.0,-999,-99.99,,,-99.99,,2013-04-19 23:22:00,
2013-04-19 19:32:00,-999.0,-99.9,29.92,SSW,194,17.0,18.0,-999,-99.99,,,-99.99,,2013-04-19 23:32:00,
2013-04-19 19:42:00,69.0,-99.9,29.93,SSW,205,23.0,31.0,-999,-99.99,,,-99.99,,2013-04-19 23:42:00,
2013-04-19 19:53:00,69.0,-99.9,29.93,North,-999,-999.0,-999.0,-999,-99.99,,,-99.99,,2013-04-19 23:53:00,
2013-04-19 20:02:00,69.0,-99.9,29.93,North,-999,-999.0,-999.0,-999,-99.99,,,-99.99,,2013-04-20 00:02:00,
2013-04-19 20:12:00,69.0,-99.9,29.94,North,-999,-999.0,-999.0,-999,-99.99,,,-99.99,,2013-04-20 00:12:00,
2013-04-19 20:22:00,69.0,-99.9,29.92,North,-999,-999.0,-999.0,-999,-99.99,,,-99.99,,2013-04-20 00:22:00,
2013-04-19 20:32:00,69.0,-99.9,29.92,North,-999,-999.0,-999.0,-999,-99.99,,,-99.99,,2013-04-20 00:32:00,
2013-04-19 20:42:00,-999.0,-99.9,29.92,SSW,195,24.0,28.0,-999,-99.99,,,-99.99,,2013-04-20 00:42:00,
2013-04-19 20:52:00,-999.0,-99.9,29.93,South,191,22.0,26.0,-999,-99.99,,,-99.99,,2013-04-20 00:52:00,
2013-04-19 21:02:00,69.0,-99.9,29.93,North,-999,-999.0,-999.0,-999,-99.99,,,-99.99,,2013-04-20 01:02:00,
2013-04-19 21:11:00,-999.0,-99.9,29.93,South,189,19.0,23.0,-999,-99.99,,,-99.99,,2013-04-20 01:11:00,
2013-04-19 21:21:00,-999.0,-99.9,29.93,South,185,19.0,23.0,-999,-99.99,,,-99.99,,2013-04-20 01:21:00,
2013-04-19 21:32:00,69.0,-99.9,29.93,North,-999,-999.0,-999.0,-999,-99.99,,,-99.99,,2013-04-20 01:32:00,
2013-04-19 21:42:00,-999.0,-99.9,29.92,South,174,17.0,23.0,-999,-99.99,,,-99.99,,2013-04-20 01:42:00,
2013-04-19 21:52:00,70.0,-99.9,29.91,North,-999,-999.0,-999.0,-999,-99.99,,,-99.99,,2013-04-20 01:52:00,
2013-04-19 22:02:00,70.0,-99.9,29.91,North,-999,-999.0,-999.0,-999,-99.99,,,-99.99,,2013-04-20 02:02:00,
2013-04-19 22:11:00,69.0,-99.9,29.92,South,188,20.0,24.0,-999,-99.99,,,-99.99,,2013-04-20 02:11:00,
2013-04-19 22:22:00,-999.0,-99.9,29.92,South,186,21.0,25.0,-999,-99.99,,,-99.99,,2013-04-20 02:22:00,
2013-04-19 22:32:00,-999.0,-99.9,29.92,South,188,20.0,24.0,-999,-99.99,,,-99.99,,2013-04-20 02:32:00,
2013-04-19 22:42:00,69.0,-99.9,29.92,North,-999,-999.0,-999.0,-999,-99.99,,,-99.99,,2013-04-20 02:42:00,
2013-04-19 22:52:00,-999.0,-99.9,29.92,South,187,20.0,24.0,-999,-99.99,,,-99.99,,2013-04-20 02:52:00,
2013-04-19 23:01:00,-999.0,-99.9,29.91,South,186,21.0,24.0,-999,-99.99,,,-99.99,,2013-04-20 03:01:00,
2013-04-19 23:11:00,69.0,-99.9,29.91,South,185,21.0,24.0,-999,-99.99,,,-99.99,,2013-04-20 03:11:00,
2013-04-19 23:22:00,69.0,-99.9,29.91,North,-999,-999.0,-999.0,-999,-99.99,,,-99.99,,2013-04-20 03:22:00,
2013-04-19 23:33:00,-999.0,-99.9,29.91,South,188,21.0,24.0,-999,-99.99,,,-99.99,,2013-04-20 03:33:00,
2013-04-19 23:43:00,69.0,-99.9,29.91,North,-999,-999.0,-999.0,-999,-99.99,,,-99.99,,2013-04-20 03:43:00,
2013-04-19 23:53:00,-999.0,-99.9,29.91,South,191,19.0,22.0,-999,-99.99,,,-99.99,,2013-04-20 03:53:00,